When you browse on this site, cookies collect data to enhance your experience and personalize the content and advertising you see.
Visit our Privacy Policy to learn more. By continuing to use the site, you agree to this use of cookies and data.
  • In Hungary
  • List of Countries
  • For 7 days
  • Water Temperature
  • Satellite Maps
  • Weather Map
  • News
  • Weather Widgets
  • user-avatar
    Login

    Hourly Weather Motril

    Today, 19 January, Saturday

    Time Temperature Precipitation Wind Pressure Humidity
    00:00 +8°C° 0 mm 5 mps 760 mmHg 78%
    01:00 +8°C° 0 mm 5 mps 760 mmHg 77%
    02:00 +8°C° 0 mm 5 mps 760 mmHg 76%
    03:00 +7°C° 0 mm 5 mps 759 mmHg 76%
    04:00 +7°C° 0 mm 5 mps 760 mmHg 77%
    05:00 +7°C° 0 mm 5 mps 760 mmHg 79%
    06:00 +7°C° 0 mm 5 mps 760 mmHg 81%
    07:00 +8°C° 0 mm 4 mps 760 mmHg 76%
    08:00 +10°C° 0 mm 4 mps 759 mmHg 71%
    09:00 +11°C° 0 mm 3 mps 759 mmHg 66%
    10:00 +13°C° 0 mm 4 mps 759 mmHg 63%
    11:00 +14°C° 0 mm 4 mps 759 mmHg 60%
    12:00 +15°C° 0 mm 4 mps 759 mmHg 57%
    13:00 +15°C° 0 mm 4 mps 759 mmHg 59%
    14:00 +15°C° 0 mm 5 mps 758 mmHg 61%
    15:00 +15°C° 0 mm 5 mps 758 mmHg 63%
    16:00 +14°C° 0.2 mm 5 mps 758 mmHg 69%
    17:00 +13°C° 0.2 mm 5 mps 757 mmHg 76%
    18:00 +12°C° 0.2 mm 5 mps 757 mmHg 82%
    19:00 +12°C° 0.3 mm 5 mps 757 mmHg 85%
    20:00 +12°C° 0.3 mm 5 mps 757 mmHg 87%
    21:00 +12°C° 0.3 mm 5 mps 757 mmHg 89%
    22:00 +13°C° 0.4 mm 5 mps 756 mmHg 91%
    23:00 +13°C° 0.4 mm 6 mps 756 mmHg 93%

    Tomorrow, 20 January, Sunday

    Time Temperature Precipitation Wind Pressure Humidity
    00:00 +13°C° 0.4 mm 6 mps 756 mmHg 94%
    01:00 +13°C° 0.6 mm 6 mps 755 mmHg 95%
    02:00 +13°C° 0.6 mm 6 mps 755 mmHg 95%
    03:00 +13°C° 0.6 mm 6 mps 755 mmHg 95%
    04:00 +13°C° 0 mm 6 mps 755 mmHg 95%
    05:00 +11°C° 0 mm 6 mps 754 mmHg 94%
    06:00 +11°C° 0 mm 6 mps 754 mmHg 94%
    07:00 +11°C° 0 mm 6 mps 754 mmHg 91%
    08:00 +13°C° 0 mm 6 mps 754 mmHg 89%
    09:00 +13°C° 0 mm 6 mps 754 mmHg 87%
    10:00 +13°C° 0.2 mm 6 mps 754 mmHg 87%
    11:00 +13°C° 0.2 mm 6 mps 754 mmHg 87%
    12:00 +14°C° 0.2 mm 6 mps 754 mmHg 87%
    13:00 +14°C° 0.1 mm 6 mps 754 mmHg 84%
    14:00 +14°C° 0.1 mm 7 mps 754 mmHg 81%
    15:00 +14°C° 0.1 mm 7 mps 754 mmHg 79%
    16:00 +14°C° 0 mm 7 mps 754 mmHg 82%
    17:00 +12°C° 0 mm 7 mps 755 mmHg 85%
    18:00 +11°C° 0 mm 6 mps 755 mmHg 88%
    19:00 +11°C° 0 mm 6 mps 756 mmHg 87%
    20:00 +10°C° 0 mm 6 mps 757 mmHg 85%
    21:00 +9°C° 0 mm 6 mps 757 mmHg 84%
    22:00 +9°C° 0 mm 5 mps 758 mmHg 83%
    23:00 +8°C° 0 mm 5 mps 758 mmHg 82%

    Day after tomorrow, 21 January, Monday

    Time Temperature Precipitation Wind Pressure Humidity
    00:00 +8°C° 0 mm 4 mps 759 mmHg 81%
    01:00 +8°C° 0 mm 4 mps 759 mmHg 79%
    02:00 +7°C° 0 mm 4 mps 759 mmHg 77%
    03:00 +7°C° 0 mm 4 mps 759 mmHg 75%
    04:00 +7°C° 0.1 mm 4 mps 759 mmHg 73%
    05:00 +7°C° 0.1 mm 3 mps 759 mmHg 71%
    06:00 +7°C° 0.1 mm 3 mps 759 mmHg 69%
    07:00 +8°C° 0.1 mm 3 mps 760 mmHg 67%
    08:00 +9°C° 0.1 mm 3 mps 760 mmHg 65%
    09:00 +10°C° 0.1 mm 3 mps 761 mmHg 63%
    10:00 +12°C° 0 mm 2 mps 761 mmHg 60%
    11:00 +13°C° 0 mm 2 mps 761 mmHg 57%
    12:00 +14°C° 0 mm 1 mps 761 mmHg 53%
    13:00 +14°C° 0 mm 1 mps 761 mmHg 52%
    14:00 +14°C° 0 mm 1 mps 761 mmHg 51%
    15:00 +14°C° 0 mm 1 mps 760 mmHg 50%
    16:00 +13°C° 0 mm 2 mps 761 mmHg 55%
    17:00 +10°C° 0 mm 2 mps 761 mmHg 60%
    18:00 +9°C° 0 mm 2 mps 761 mmHg 65%
    19:00 +8°C° 0 mm 3 mps 762 mmHg 66%
    20:00 +7°C° 0 mm 4 mps 762 mmHg 67%
    21:00 +7°C° 0 mm 4 mps 763 mmHg 69%
    22:00 +6°C° 0 mm 4 mps 763 mmHg 68%
    23:00 +6°C° 0 mm 4 mps 763 mmHg 67%

    22 January, Tuesday

    Time Temperature Precipitation Wind Pressure Humidity
    00:00 +7°C° 0 mm 3 mps 763 mmHg 67%
    01:00 +7°C° 0 mm 3 mps 763 mmHg 64%
    02:00 +7°C° 0 mm 3 mps 763 mmHg 61%
    03:00 +7°C° 0 mm 3 mps 763 mmHg 59%
    04:00 +5°C° 0 mm 3 mps 763 mmHg 56%
    05:00 +5°C° 0 mm 3 mps 762 mmHg 53%
    06:00 +5°C° 0 mm 3 mps 762 mmHg 50%
    07:00 +7°C° 0 mm 3 mps 762 mmHg 47%
    08:00 +8°C° 0 mm 3 mps 763 mmHg 44%
    09:00 +10°C° 0 mm 4 mps 763 mmHg 41%
    10:00 +11°C° 0 mm 4 mps 762 mmHg 42%
    11:00 +12°C° 0 mm 5 mps 762 mmHg 42%
    12:00 +14°C° 0 mm 5 mps 761 mmHg 43%
    13:00 +14°C° 0 mm 6 mps 760 mmHg 45%
    14:00 +14°C° 0 mm 6 mps 759 mmHg 47%
    15:00 +14°C° 0 mm 7 mps 758 mmHg 49%
    16:00 +11°C° 0 mm 7 mps 758 mmHg 59%
    17:00 +10°C° 0 mm 7 mps 758 mmHg 69%
    18:00 +8°C° 0 mm 7 mps 758 mmHg 79%
    19:00 +8°C° 0 mm 7 mps 758 mmHg 81%
    20:00 +9°C° 0 mm 7 mps 758 mmHg 84%
    21:00 +9°C° 0 mm 7 mps 758 mmHg 86%
    22:00 +9°C° 0.1 mm 8 mps 757 mmHg 88%
    23:00 +8°C° 0.1 mm 9 mps 757 mmHg 91%

    23 January, Wednesday

    Time Temperature Precipitation Wind Pressure Humidity
    00:00 +10°C° 0.1 mm 9 mps 756 mmHg 93%
    01:00 +8°C° 0 mm 9 mps 756 mmHg 91%
    02:00 +7°C° 0 mm 9 mps 756 mmHg 89%
    03:00 +6°C° 0 mm 9 mps 756 mmHg 87%
    04:00 +6°C° 0 mm 8 mps 756 mmHg 86%
    05:00 +6°C° 0 mm 8 mps 756 mmHg 85%
    06:00 +6°C° 0 mm 8 mps 756 mmHg 85%
    07:00 +6°C° 0 mm 8 mps 756 mmHg 81%
    08:00 +8°C° 0 mm 7 mps 757 mmHg 77%
    09:00 +8°C° 0 mm 7 mps 757 mmHg 73%
    10:00 +9°C° 0 mm 8 mps 757 mmHg 66%
    11:00 +11°C° 0 mm 8 mps 756 mmHg 58%
    12:00 +12°C° 0 mm 9 mps 756 mmHg 51%
    13:00 +11°C° 0 mm 10 mps 755 mmHg 61%
    14:00 +11°C° 0 mm 11 mps 754 mmHg 71%
    15:00 +9°C° 0 mm 11 mps 752 mmHg 80%
    16:00 +9°C° 0.1 mm 11 mps 752 mmHg 83%
    17:00 +9°C° 0.1 mm 11 mps 752 mmHg 86%
    18:00 +9°C° 0.1 mm 11 mps 752 mmHg 89%
    19:00 +9°C° 0 mm 11 mps 752 mmHg 90%
    20:00 +9°C° 0 mm 10 mps 753 mmHg 91%
    21:00 +9°C° 0 mm 10 mps 753 mmHg 92%
    22:00 +10°C° 0 mm 9 mps 753 mmHg 91%
    23:00 +10°C° 0 mm 8 mps 753 mmHg 91%

    24 January, Thursday

    Time Temperature Precipitation Wind Pressure Humidity
    00:00 +10°C° 0 mm 8 mps 752 mmHg 90%
    01:00 +10°C° 0 mm 8 mps 752 mmHg 89%
    02:00 +10°C° 0 mm 8 mps 752 mmHg 89%
    03:00 +10°C° 0 mm 7 mps 751 mmHg 88%
    04:00 +9°C° 0 mm 7 mps 751 mmHg 88%
    05:00 +9°C° 0 mm 7 mps 751 mmHg 88%
    06:00 +9°C° 0 mm 7 mps 750 mmHg 88%
    07:00 +9°C° 0 mm 7 mps 750 mmHg 86%
    08:00 +9°C° 0 mm 7 mps 751 mmHg 84%
    09:00 +10°C° 0 mm 7 mps 751 mmHg 82%
    10:00 +10°C° 0.1 mm 6 mps 750 mmHg 79%
    11:00 +11°C° 0.1 mm 6 mps 750 mmHg 76%
    12:00 +11°C° 0.1 mm 6 mps 750 mmHg 73%
    13:00 +10°C° 0.8 mm 5 mps 750 mmHg 78%
    14:00 +10°C° 0.8 mm 5 mps 749 mmHg 84%
    15:00 +9°C° 0.8 mm 5 mps 749 mmHg 89%
    16:00 +8°C° 0.4 mm 4 mps 749 mmHg 84%
    17:00 +8°C° 0.4 mm 4 mps 750 mmHg 79%
    18:00 +7°C° 0.4 mm 4 mps 750 mmHg 74%
    19:00 +6°C° 0.2 mm 4 mps 751 mmHg 72%
    20:00 +4°C° 0.2 mm 4 mps 752 mmHg 71%
    21:00 +3°C° 0.2 mm 3 mps 753 mmHg 69%
    22:00 +3°C° 0 mm 4 mps 753 mmHg 68%
    23:00 +1°C° 0 mm 4 mps 754 mmHg 66%
    Show more